date,time,SUV Intensity [MED/Hr],UV Index,Daily total [MED],Since Last [MED]
07/08/2022,00:11:20,0.000,0.0,0.0,0.0
07/08/2022,00:12:20,0.000,0.0,0.0,0.0
07/08/2022,00:13:20,-0.001,0.0,0.0,0.0
07/08/2022,00:14:20,-0.001,0.0,0.0,0.0
07/08/2022,00:15:20,0.000,0.0,0.0,0.0
07/08/2022,00:16:28,0.000,0.0,0.0,0.0
07/08/2022,00:17:21,0.000,0.0,0.0,0.0
07/08/2022,00:18:20,0.000,0.0,0.0,0.0
07/08/2022,00:19:20,-0.000,0.0,0.0,0.0
07/08/2022,00:20:20,0.000,0.0,0.0,0.0
07/08/2022,00:21:28,0.000,0.0,0.0,0.0
07/08/2022,00:22:20,-0.000,0.0,0.0,0.0
07/08/2022,00:23:20,0.000,0.0,0.0,0.0
07/08/2022,00:24:28,-0.000,0.0,0.0,0.0
07/08/2022,00:25:20,-0.000,0.0,0.0,0.0
07/08/2022,00:26:21,0.000,0.0,0.0,0.0
07/08/2022,00:27:20,0.000,0.0,0.0,0.0
07/08/2022,00:28:20,0.000,0.0,0.0,0.0
07/08/2022,00:29:20,0.000,0.0,0.0,0.0
07/08/2022,00:30:20,-0.001,0.0,0.0,0.0
07/08/2022,00:31:20,0.000,0.0,0.0,0.0
07/08/2022,00:32:20,0.000,0.0,0.0,0.0
07/08/2022,00:33:20,0.000,0.0,0.0,0.0
07/08/2022,00:34:20,0.000,0.0,0.0,0.0
07/08/2022,00:35:20,0.000,0.0,0.0,0.0
07/08/2022,00:36:20,-0.000,0.0,0.0,0.0
07/08/2022,00:37:20,0.000,0.0,0.0,0.0
07/08/2022,00:38:20,0.000,0.0,0.0,0.0
07/08/2022,00:39:28,0.000,0.0,0.0,0.0
07/08/2022,00:40:20,-0.000,0.0,0.0,0.0
07/08/2022,00:41:21,0.000,0.0,0.0,0.0
07/08/2022,00:42:28,-0.001,0.0,0.0,0.0
07/08/2022,00:43:21,0.000,0.0,0.0,0.0
07/08/2022,00:44:20,0.000,0.0,0.0,0.0
07/08/2022,00:45:07,0.001,0.0,0.0,0.0
07/08/2022,00:46:21,0.000,0.0,0.0,0.0
07/08/2022,00:47:20,0.000,0.0,0.0,0.0
07/08/2022,00:48:20,0.000,0.0,0.0,0.0
07/08/2022,00:49:20,0.001,0.0,0.0,0.0
07/08/2022,00:50:21,0.000,0.0,0.0,0.0
07/08/2022,00:51:20,0.000,0.0,0.0,0.0
07/08/2022,00:52:20,0.001,0.0,0.0,0.0
07/08/2022,00:53:20,-0.000,0.0,0.0,0.0
07/08/2022,00:54:20,-0.001,0.0,0.0,0.0
07/08/2022,00:55:21,0.000,0.0,0.0,0.0
07/08/2022,00:56:20,0.000,0.0,0.0,0.0
07/08/2022,00:57:20,0.000,0.0,0.0,0.0
07/08/2022,00:58:20,0.000,0.0,0.0,0.0
07/08/2022,00:59:20,0.000,0.0,0.0,0.0
07/08/2022,01:00:28,0.001,0.0,0.0,0.0
07/08/2022,01:01:20,-0.001,0.0,0.0,0.0
07/08/2022,01:02:21,0.000,0.0,0.0,0.0
07/08/2022,01:03:20,0.001,0.0,0.0,0.0
07/08/2022,01:04:20,0.000,0.0,0.0,0.0
07/08/2022,01:05:22,0.000,0.0,0.0,0.0
07/08/2022,01:06:20,0.000,0.0,0.0,0.0
07/08/2022,01:07:20,0.000,0.0,0.0,0.0
07/08/2022,01:08:20,0.000,0.0,0.0,0.0
07/08/2022,01:09:20,0.000,0.0,0.0,0.0
07/08/2022,01:10:20,-0.000,0.0,0.0,0.0
07/08/2022,01:11:21,0.000,0.0,0.0,0.0
07/08/2022,01:12:20,0.001,0.0,0.0,0.0
07/08/2022,01:13:21,-0.001,0.0,0.0,0.0
07/08/2022,01:14:20,-0.001,0.0,0.0,0.0
07/08/2022,01:15:20,0.000,0.0,0.0,0.0
07/08/2022,01:16:20,-0.000,0.0,0.0,0.0
07/08/2022,01:17:20,0.000,0.0,0.0,0.0
07/08/2022,01:18:21,0.000,0.0,0.0,0.0
07/08/2022,01:19:20,-0.001,0.0,0.0,0.0
07/08/2022,01:20:20,-0.000,0.0,0.0,0.0
07/08/2022,01:21:20,-0.000,0.0,0.0,0.0
07/08/2022,01:22:21,0.001,0.0,0.0,0.0
07/08/2022,01:23:28,-0.000,0.0,0.0,0.0
07/08/2022,01:24:19,0.000,0.0,0.0,0.0
07/08/2022,01:25:20,0.000,0.0,0.0,0.0
07/08/2022,01:26:20,0.001,0.0,0.0,0.0
07/08/2022,01:27:20,0.000,0.0,0.0,0.0
07/08/2022,01:28:20,0.001,0.0,0.0,0.0
07/08/2022,01:29:21,0.000,0.0,0.0,0.0
07/08/2022,01:30:20,-0.001,0.0,0.0,0.0
07/08/2022,01:31:20,0.001,0.0,0.0,0.0
07/08/2022,01:32:21,0.000,0.0,0.0,0.0
07/08/2022,01:33:20,0.000,0.0,0.0,0.0
07/08/2022,01:34:20,0.001,0.0,0.0,0.0
07/08/2022,01:35:20,-0.001,0.0,0.0,0.0
07/08/2022,01:36:20,0.000,0.0,0.0,0.0
07/08/2022,01:37:20,0.000,0.0,0.0,0.0
07/08/2022,01:38:28,0.000,0.0,0.0,0.0
07/08/2022,01:39:20,0.000,0.0,0.0,0.0
07/08/2022,01:40:21,-0.001,0.0,0.0,0.0
07/08/2022,01:41:20,0.000,0.0,0.0,0.0
07/08/2022,01:42:20,-0.000,0.0,0.0,0.0
07/08/2022,01:43:20,0.001,0.0,0.0,0.0
07/08/2022,01:44:28,0.001,0.0,0.0,0.0
07/08/2022,01:45:21,0.001,0.0,0.0,0.0
07/08/2022,01:46:20,0.001,0.0,0.0,0.0
07/08/2022,01:47:20,0.002,0.0,0.0,0.0
07/08/2022,01:48:20,0.000,0.0,0.0,0.0
07/08/2022,01:49:21,0.000,0.0,0.0,0.0
07/08/2022,01:50:29,0.001,0.0,0.0,0.0
07/08/2022,01:51:20,-0.001,0.0,0.0,0.0
07/08/2022,01:52:21,0.001,0.0,0.0,0.0
07/08/2022,01:53:20,0.000,0.0,0.0,0.0
07/08/2022,01:54:20,0.000,0.0,0.0,0.0
07/08/2022,01:55:20,0.000,0.0,0.0,0.0
07/08/2022,01:56:20,0.000,0.0,0.0,0.0
07/08/2022,01:57:21,-0.001,0.0,0.0,0.0
07/08/2022,01:58:20,0.000,0.0,0.0,0.0
07/08/2022,01:59:22,0.000,0.0,0.0,0.0
07/08/2022,02:00:20,0.001,0.0,0.0,0.0
07/08/2022,02:01:20,0.000,0.0,0.0,0.0
07/08/2022,02:02:20,0.001,0.0,0.0,0.0
07/08/2022,02:03:20,0.000,0.0,0.0,0.0
07/08/2022,02:04:11,0.001,0.0,0.0,0.0
07/08/2022,02:05:21,0.001,0.0,0.0,0.0
07/08/2022,02:06:20,-0.001,0.0,0.0,0.0
07/08/2022,02:07:20,-0.001,0.0,0.0,0.0
07/08/2022,02:08:29,0.000,0.0,0.0,0.0
07/08/2022,02:09:11,0.000,0.0,0.0,0.0
07/08/2022,02:10:21,0.001,0.0,0.0,0.0
07/08/2022,02:11:28,0.000,0.0,0.0,0.0
07/08/2022,02:12:20,0.000,0.0,0.0,0.0
07/08/2022,02:13:20,0.001,0.0,0.0,0.0
07/08/2022,02:14:20,0.000,0.0,0.0,0.0
07/08/2022,02:15:20,0.001,0.0,0.0,0.0
07/08/2022,02:16:20,-0.000,0.0,0.0,0.0
07/08/2022,02:17:20,0.000,0.0,0.0,0.0
07/08/2022,02:18:20,0.000,0.0,0.0,0.0
07/08/2022,02:19:20,-0.001,0.0,0.0,0.0
07/08/2022,02:20:20,-0.000,0.0,0.0,0.0
07/08/2022,02:21:21,-0.000,0.0,0.0,0.0
07/08/2022,02:22:20,-0.001,0.0,0.0,0.0
07/08/2022,02:23:20,0.001,0.0,0.0,0.0
07/08/2022,02:24:20,0.001,0.0,0.0,0.0
07/08/2022,02:25:20,0.000,0.0,0.0,0.0
07/08/2022,02:26:20,-0.000,0.0,0.0,0.0
07/08/2022,02:27:20,0.000,0.0,0.0,0.0
07/08/2022,02:28:21,0.002,0.0,0.0,0.0
07/08/2022,02:29:29,0.001,0.0,0.0,0.0
07/08/2022,02:30:20,0.001,0.0,0.0,0.0
07/08/2022,02:31:29,0.001,0.0,0.0,0.0
07/08/2022,02:32:20,0.000,0.0,0.0,0.0
07/08/2022,02:33:20,0.001,0.0,0.0,0.0
07/08/2022,02:34:20,0.000,0.0,0.0,0.0
07/08/2022,02:35:21,0.001,0.0,0.0,0.0
07/08/2022,02:36:20,0.001,0.0,0.0,0.0
07/08/2022,02:37:20,0.002,0.0,0.0,0.0
07/08/2022,02:38:20,0.001,0.0,0.0,0.0
07/08/2022,02:39:20,0.000,0.0,0.0,0.0
07/08/2022,02:40:20,0.001,0.0,0.0,0.0
07/08/2022,02:41:20,0.001,0.0,0.0,0.0
07/08/2022,02:42:21,0.001,0.0,0.0,0.0
07/08/2022,02:43:20,0.001,0.0,0.0,0.0
07/08/2022,02:44:20,0.000,0.0,0.0,0.0
07/08/2022,02:45:21,0.001,0.0,0.0,0.0
07/08/2022,02:46:20,-0.001,0.0,0.0,0.0
07/08/2022,02:47:21,0.001,0.0,0.0,0.0
07/08/2022,02:48:20,0.000,0.0,0.0,0.0
07/08/2022,02:49:21,0.001,0.0,0.0,0.0
07/08/2022,02:50:20,0.000,0.0,0.0,0.0
07/08/2022,02:51:20,0.001,0.0,0.0,0.0
07/08/2022,02:52:29,-0.000,0.0,0.0,0.0
07/08/2022,02:53:20,0.001,0.0,0.0,0.0
07/08/2022,02:54:20,0.002,0.0,0.0,0.0
07/08/2022,02:55:20,0.001,0.0,0.0,0.0
07/08/2022,02:56:20,0.001,0.0,0.0,0.0
07/08/2022,02:57:21,0.001,0.0,0.0,0.0
07/08/2022,02:58:22,0.001,0.0,0.0,0.0
07/08/2022,02:59:20,-0.000,0.0,0.0,0.0
07/08/2022,03:00:20,0.001,0.0,0.0,0.0
07/08/2022,03:01:20,0.001,0.0,0.0,0.0
07/08/2022,03:02:21,-0.000,0.0,0.0,0.0
07/08/2022,03:03:20,0.000,0.0,0.0,0.0
07/08/2022,03:04:20,0.001,0.0,0.0,0.0
07/08/2022,03:05:28,0.001,0.0,0.0,0.0
07/08/2022,03:06:21,0.001,0.0,0.0,0.0
07/08/2022,03:07:29,0.001,0.0,0.0,0.0
07/08/2022,03:08:20,0.001,0.0,0.0,0.0
07/08/2022,03:09:21,0.001,0.0,0.0,0.0
07/08/2022,03:10:20,-0.000,0.0,0.0,0.0
07/08/2022,03:11:20,0.001,0.0,0.0,0.0
07/08/2022,03:12:21,0.001,0.0,0.0,0.0
07/08/2022,03:13:29,0.002,0.0,0.0,0.0
07/08/2022,03:14:20,0.001,0.0,0.0,0.0
07/08/2022,03:15:20,0.000,0.0,0.0,0.0
07/08/2022,03:16:20,0.001,0.0,0.0,0.0
07/08/2022,03:17:20,0.000,0.0,0.0,0.0
07/08/2022,03:18:21,0.001,0.0,0.0,0.0
07/08/2022,03:19:20,0.001,0.0,0.0,0.0
07/08/2022,03:20:20,0.001,0.0,0.0,0.0
07/08/2022,03:21:21,0.001,0.0,0.0,0.0
07/08/2022,03:22:20,0.001,0.0,0.0,0.0
07/08/2022,03:23:21,0.001,0.0,0.0,0.0
07/08/2022,03:24:20,0.001,0.0,0.0,0.0
07/08/2022,03:25:20,0.001,0.0,0.0,0.0
07/08/2022,03:26:21,0.001,0.0,0.0,0.0
07/08/2022,03:27:20,0.001,0.0,0.0,0.0
07/08/2022,03:28:29,0.002,0.0,0.0,0.0
07/08/2022,03:29:20,0.002,0.0,0.0,0.0
07/08/2022,03:30:20,0.000,0.0,0.0,0.0
07/08/2022,03:31:21,0.001,0.0,0.0,0.0
07/08/2022,03:32:21,0.001,0.0,0.0,0.0
07/08/2022,03:33:21,0.001,0.0,0.0,0.0
07/08/2022,03:34:20,0.002,0.0,0.0,0.0
07/08/2022,03:35:21,0.001,0.0,0.0,0.0
07/08/2022,03:36:20,0.002,0.0,0.0,0.0
07/08/2022,03:37:21,0.001,0.0,0.0,0.0
07/08/2022,03:38:20,0.001,0.0,0.0,0.0
07/08/2022,03:39:21,0.001,0.0,0.0,0.0
07/08/2022,03:40:20,0.001,0.0,0.0,0.0
07/08/2022,03:41:20,0.001,0.0,0.0,0.0
07/08/2022,03:42:20,0.002,0.0,0.0,0.0
07/08/2022,03:43:20,0.001,0.0,0.0,0.0
07/08/2022,03:44:21,0.001,0.0,0.0,0.0
07/08/2022,03:45:20,0.001,0.0,0.0,0.0
07/08/2022,03:46:21,0.001,0.0,0.0,0.0
07/08/2022,03:47:29,0.000,0.0,0.0,0.0
07/08/2022,03:48:20,0.001,0.0,0.0,0.0
07/08/2022,03:49:20,0.000,0.0,0.0,0.0
07/08/2022,03:50:20,0.001,0.0,0.0,0.0
07/08/2022,03:51:20,0.001,0.0,0.0,0.0
07/08/2022,03:52:29,0.001,0.0,0.0,0.0
07/08/2022,03:53:20,0.001,0.0,0.0,0.0
07/08/2022,03:54:20,0.001,0.0,0.0,0.0
07/08/2022,03:55:20,0.000,0.0,0.0,0.0
07/08/2022,03:56:20,0.000,0.0,0.0,0.0
07/08/2022,03:57:21,0.001,0.0,0.0,0.0
07/08/2022,03:58:20,0.002,0.0,0.0,0.0
07/08/2022,03:59:21,0.002,0.0,0.0,0.0
07/08/2022,04:00:21,0.001,0.0,0.0,0.0
07/08/2022,04:01:20,0.000,0.0,0.0,0.0
07/08/2022,04:02:20,0.000,0.0,0.0,0.0
07/08/2022,04:03:21,0.002,0.0,0.0,0.0
07/08/2022,04:04:20,0.001,0.0,0.0,0.0
07/08/2022,04:05:29,0.000,0.0,0.0,0.0
07/08/2022,04:06:20,0.001,0.0,0.0,0.0
07/08/2022,04:07:20,0.001,0.0,0.0,0.0
07/08/2022,04:08:28,0.001,0.0,0.0,0.0
07/08/2022,04:09:21,0.001,0.0,0.0,0.0
07/08/2022,04:10:20,0.002,0.0,0.0,0.0
07/08/2022,04:11:21,0.000,0.0,0.0,0.0
07/08/2022,04:12:20,0.001,0.0,0.0,0.0
07/08/2022,04:13:21,0.001,0.0,0.0,0.0
07/08/2022,04:14:28,0.001,0.0,0.0,0.0
07/08/2022,04:15:21,0.002,0.0,0.0,0.0
07/08/2022,04:16:20,0.001,0.0,0.0,0.0
07/08/2022,04:17:21,0.001,0.0,0.0,0.0
07/08/2022,04:18:20,0.001,0.0,0.0,0.0
07/08/2022,04:19:21,0.001,0.0,0.0,0.0
07/08/2022,04:20:20,0.001,0.0,0.0,0.0
07/08/2022,04:21:20,0.001,0.0,0.0,0.0
07/08/2022,04:22:21,0.001,0.0,0.0,0.0
07/08/2022,04:23:20,0.001,0.0,0.0,0.0
07/08/2022,04:24:21,0.001,0.0,0.0,0.0
07/08/2022,04:25:20,0.001,0.0,0.0,0.0
07/08/2022,04:26:29,0.001,0.0,0.0,0.0
07/08/2022,04:27:21,0.002,0.0,0.0,0.0
07/08/2022,04:28:22,0.001,0.0,0.0,0.0
07/08/2022,04:29:29,0.002,0.0,0.0,0.0
07/08/2022,04:30:20,0.002,0.0,0.0,0.0
07/08/2022,04:31:21,0.002,0.0,0.0,0.0
07/08/2022,04:32:20,0.002,0.0,0.0,0.0
07/08/2022,04:33:21,0.002,0.0,0.0,0.0
07/08/2022,04:34:21,0.002,0.0,0.0,0.0
07/08/2022,04:35:21,0.002,0.0,0.0,0.0
07/08/2022,04:36:21,0.002,0.0,0.0,0.0
07/08/2022,04:37:21,0.002,0.0,0.0,0.0
07/08/2022,04:38:20,0.002,0.0,0.0,0.0
07/08/2022,04:39:21,0.002,0.0,0.0,0.0
07/08/2022,04:40:21,0.003,0.0,0.0,0.0
07/08/2022,04:41:21,0.002,0.0,0.0,0.0
07/08/2022,04:42:20,0.003,0.0,0.0,0.0
07/08/2022,04:43:21,0.003,0.0,0.0,0.0
07/08/2022,04:44:20,0.003,0.0,0.0,0.0
07/08/2022,04:45:20,0.003,0.0,0.0,0.0
07/08/2022,04:46:21,0.003,0.0,0.0,0.0
07/08/2022,04:47:29,0.003,0.0,0.0,0.0
07/08/2022,04:48:21,0.004,0.0,0.0,0.0
07/08/2022,04:49:21,0.004,0.0,0.0,0.0
07/08/2022,04:50:29,0.004,0.0,0.0,0.0
07/08/2022,04:51:20,0.004,0.0,0.0,0.0
07/08/2022,04:52:20,0.004,0.0,0.0,0.0
07/08/2022,04:53:21,0.005,0.0,0.0,0.0
07/08/2022,04:54:21,0.005,0.0,0.0,0.0
07/08/2022,04:55:21,0.005,0.0,0.0,0.0
07/08/2022,04:56:21,0.005,0.0,0.0,0.0
07/08/2022,04:57:21,0.005,0.0,0.0,0.0
07/08/2022,04:58:22,0.006,0.0,0.0,0.0
07/08/2022,04:59:21,0.006,0.0,0.0,0.0
07/08/2022,05:00:21,0.006,0.0,0.0,0.0
07/08/2022,05:01:21,0.006,0.0,0.0,0.0
07/08/2022,05:02:21,0.007,0.0,0.0,0.0
07/08/2022,05:03:20,0.007,0.0,0.0,0.0
07/08/2022,05:04:20,0.008,0.0,0.001,0.001
07/08/2022,05:05:28,0.008,0.0,0.001,0.0
07/08/2022,05:06:20,0.008,0.0,0.001,0.0
07/08/2022,05:07:20,0.010,0.0,0.001,0.0
07/08/2022,05:08:21,0.009,0.0,0.001,0.0
07/08/2022,05:09:21,0.009,0.0,0.001,0.0
07/08/2022,05:10:21,0.010,0.0,0.001,0.0
07/08/2022,05:11:21,0.010,0.0,0.002,0.001
07/08/2022,05:12:21,0.010,0.0,0.002,0.0
07/08/2022,05:13:29,0.011,0.0,0.002,0.0
07/08/2022,05:14:28,0.011,0.0,0.002,0.0
07/08/2022,05:15:20,0.012,0.0,0.002,0.0
07/08/2022,05:16:20,0.012,0.0,0.003,0.001
07/08/2022,05:17:20,0.011,0.0,0.003,0.0
07/08/2022,05:18:20,0.013,0.0,0.003,0.0
07/08/2022,05:19:21,0.013,0.0,0.003,0.0
07/08/2022,05:20:21,0.014,0.0,0.003,0.0
07/08/2022,05:21:20,0.015,0.0,0.004,0.001
07/08/2022,05:22:21,0.015,0.0,0.004,0.0
07/08/2022,05:23:20,0.016,0.0,0.004,0.0
07/08/2022,05:24:22,0.017,0.0,0.004,0.0
07/08/2022,05:25:20,0.018,0.0,0.005,0.001
07/08/2022,05:26:21,0.018,0.0,0.005,0.0
07/08/2022,05:27:21,0.019,0.0,0.005,0.0
07/08/2022,05:28:20,0.020,0.0,0.006,0.001
07/08/2022,05:29:29,0.020,0.0,0.006,0.0
07/08/2022,05:30:21,0.021,0.0,0.006,0.0
07/08/2022,05:31:21,0.021,0.0,0.007,0.001
07/08/2022,05:32:21,0.022,0.0,0.007,0.0
07/08/2022,05:33:12,0.022,0.0,0.007,0.0
07/08/2022,05:34:21,0.023,0.0,0.008,0.001
07/08/2022,05:35:20,0.024,0.0,0.008,0.0
07/08/2022,05:36:21,0.025,0.0,0.009,0.001
07/08/2022,05:37:20,0.026,0.0,0.009,0.0
07/08/2022,05:38:21,0.027,0.0,0.009,0.0
07/08/2022,05:39:20,0.027,0.0,0.01,0.001
07/08/2022,05:40:21,0.028,0.0,0.01,0.0
07/08/2022,05:41:21,0.028,0.0,0.011,0.001
07/08/2022,05:42:20,0.029,0.0,0.011,0.0
07/08/2022,05:43:22,0.031,0.0,0.012,0.001
07/08/2022,05:44:21,0.032,0.0,0.012,0.0
07/08/2022,05:45:21,0.033,0.0,0.013,0.001
07/08/2022,05:46:20,0.035,0.0,0.013,0.0
07/08/2022,05:47:21,0.035,0.0,0.014,0.001
07/08/2022,05:48:21,0.036,0.0,0.015,0.001
07/08/2022,05:49:21,0.037,0.0,0.015,0.0
07/08/2022,05:50:21,0.037,0.0,0.016,0.001
07/08/2022,05:51:21,0.039,0.0,0.017,0.001
07/08/2022,05:52:20,0.040,0.0,0.017,0.0
07/08/2022,05:53:20,0.042,0.0,0.018,0.001
07/08/2022,05:54:21,0.043,0.0,0.019,0.001
07/08/2022,05:55:20,0.044,0.0,0.019,0.0
07/08/2022,05:56:21,0.045,0.0,0.02,0.001
07/08/2022,05:57:21,0.046,0.0,0.021,0.001
07/08/2022,05:58:21,0.048,0.0,0.022,0.001
07/08/2022,05:59:20,0.049,0.0,0.022,0.0
07/08/2022,06:00:30,0.050,0.0,0.023,0.001
07/08/2022,06:01:19,0.051,0.0,0.024,0.001
07/08/2022,06:02:20,0.053,0.0,0.025,0.001
07/08/2022,06:03:29,0.055,0.0,0.026,0.001
07/08/2022,06:04:21,0.056,0.0,0.027,0.001
07/08/2022,06:05:21,0.058,0.0,0.028,0.001
07/08/2022,06:06:21,0.059,0.0,0.029,0.001
07/08/2022,06:07:21,0.061,0.0,0.03,0.001
07/08/2022,06:08:20,0.062,0.0,0.031,0.001
07/08/2022,06:09:21,0.064,0.0,0.032,0.001
07/08/2022,06:10:21,0.066,0.0,0.033,0.001
07/08/2022,06:11:21,0.066,0.0,0.034,0.001
07/08/2022,06:12:20,0.068,0.0,0.035,0.001
07/08/2022,06:13:20,0.070,0.0,0.036,0.001
07/08/2022,06:14:20,0.071,0.0,0.037,0.001
07/08/2022,06:15:20,0.074,0.0,0.038,0.001
07/08/2022,06:16:21,0.075,0.0,0.04,0.002
07/08/2022,06:17:20,0.076,0.0,0.041,0.001
07/08/2022,06:18:20,0.077,0.0,0.042,0.001
07/08/2022,06:19:21,0.080,0.0,0.044,0.002
07/08/2022,06:20:21,0.082,0.0,0.045,0.001
07/08/2022,06:21:20,0.084,0.0,0.046,0.001
07/08/2022,06:22:30,0.086,0.0,0.048,0.002
07/08/2022,06:23:19,0.087,0.0,0.049,0.001
07/08/2022,06:24:29,0.090,0.0,0.051,0.002
07/08/2022,06:25:21,0.092,0.0,0.052,0.001
07/08/2022,06:26:33,0.093,0.0,0.054,0.002
07/08/2022,06:28:21,0.097,0.0,0.057,0.003
07/08/2022,06:29:21,0.100,0.0,0.058,0.001
07/08/2022,06:30:21,0.104,0.0,0.06,0.002
07/08/2022,06:31:20,0.108,0.0,0.062,0.002
07/08/2022,06:32:22,0.111,0.0,0.064,0.002
07/08/2022,06:33:21,0.113,0.0,0.066,0.002
07/08/2022,06:34:21,0.116,0.0,0.068,0.002
07/08/2022,06:35:21,0.118,0.0,0.07,0.002
07/08/2022,06:36:21,0.121,0.0,0.072,0.002
07/08/2022,06:37:21,0.123,0.0,0.074,0.002
07/08/2022,06:38:20,0.126,0.0,0.076,0.002
07/08/2022,06:39:29,0.129,0.0,0.078,0.002
07/08/2022,06:40:21,0.131,0.0,0.08,0.002
07/08/2022,06:41:21,0.134,0.0,0.082,0.002
07/08/2022,06:42:29,0.137,0.0,0.085,0.003
07/08/2022,06:43:21,0.139,0.0,0.087,0.002
07/08/2022,06:44:20,0.142,0.0,0.089,0.002
07/08/2022,06:45:21,0.145,0.0,0.091,0.002
07/08/2022,06:46:21,0.148,0.0,0.094,0.003
07/08/2022,06:47:21,0.151,0.0,0.096,0.002
07/08/2022,06:48:21,0.153,0.0,0.099,0.003
07/08/2022,06:49:20,0.157,0.0,0.101,0.002
07/08/2022,06:50:21,0.160,0.0,0.104,0.003
07/08/2022,06:51:20,0.164,0.0,0.107,0.003
07/08/2022,06:52:21,0.166,0.0,0.109,0.002
07/08/2022,06:53:21,0.169,0.0,0.112,0.003
07/08/2022,06:54:21,0.172,0.0,0.115,0.003
07/08/2022,06:55:30,0.177,0.0,0.119,0.004
07/08/2022,06:56:20,0.179,0.0,0.121,0.002
07/08/2022,06:57:21,0.182,0.0,0.124,0.003
07/08/2022,06:58:21,0.186,0.0,0.127,0.003
07/08/2022,06:59:21,0.190,0.0,0.13,0.003
07/08/2022,07:00:21,0.192,0.0,0.133,0.003
07/08/2022,07:01:21,0.197,0.0,0.137,0.004
07/08/2022,07:02:21,0.201,0.0,0.14,0.003
07/08/2022,07:03:21,0.204,0.0,0.143,0.003
07/08/2022,07:04:20,0.208,0.0,0.147,0.004
07/08/2022,07:05:21,0.212,0.0,0.15,0.003
07/08/2022,07:06:21,0.216,0.0,0.154,0.004
07/08/2022,07:07:29,0.220,1.0,0.158,0.004
07/08/2022,07:08:20,0.224,1.0,0.161,0.003
07/08/2022,07:09:21,0.228,1.0,0.165,0.004
07/08/2022,07:10:29,0.231,1.0,0.169,0.004
07/08/2022,07:11:21,0.236,1.0,0.173,0.004
07/08/2022,07:12:21,0.240,1.0,0.177,0.004
07/08/2022,07:13:29,0.245,1.0,0.181,0.004
07/08/2022,07:14:20,0.249,1.0,0.185,0.004
07/08/2022,07:15:21,0.252,1.0,0.189,0.004
07/08/2022,07:16:21,0.257,1.0,0.193,0.004
07/08/2022,07:17:21,0.261,1.0,0.198,0.005
07/08/2022,07:18:20,0.266,1.0,0.202,0.004
07/08/2022,07:19:20,0.270,1.0,0.206,0.004
07/08/2022,07:20:21,0.276,1.0,0.211,0.005
07/08/2022,07:21:21,0.280,1.0,0.216,0.005
07/08/2022,07:22:21,0.285,1.0,0.22,0.004
07/08/2022,07:23:21,0.289,1.0,0.225,0.005
07/08/2022,07:24:20,0.295,1.0,0.23,0.005
07/08/2022,07:25:21,0.298,1.0,0.235,0.005
07/08/2022,07:26:21,0.304,1.0,0.24,0.005
07/08/2022,07:27:21,0.308,1.0,0.245,0.005
07/08/2022,07:28:29,0.314,1.0,0.251,0.006
07/08/2022,07:29:21,0.320,1.0,0.255,0.004
07/08/2022,07:30:20,0.324,1.0,0.261,0.006
07/08/2022,07:31:21,0.330,1.0,0.266,0.005
07/08/2022,07:32:20,0.333,1.0,0.272,0.006
07/08/2022,07:33:20,0.338,1.0,0.277,0.005
07/08/2022,07:34:21,0.344,1.0,0.283,0.006
07/08/2022,07:35:21,0.349,1.0,0.289,0.006
07/08/2022,07:36:21,0.354,1.0,0.295,0.006
07/08/2022,07:37:21,0.359,1.0,0.301,0.006
07/08/2022,07:38:30,0.366,1.0,0.308,0.007
07/08/2022,07:39:20,0.371,1.0,0.313,0.005
07/08/2022,07:40:22,0.376,1.0,0.319,0.006
07/08/2022,07:41:20,0.381,1.0,0.325,0.006
07/08/2022,07:42:20,0.387,1.0,0.332,0.007
07/08/2022,07:43:22,0.393,1.0,0.338,0.006
07/08/2022,07:44:21,0.398,1.0,0.345,0.007
07/08/2022,07:45:23,0.405,1.0,0.352,0.007
07/08/2022,07:46:20,0.410,1.0,0.358,0.006
07/08/2022,07:47:20,0.415,1.0,0.365,0.007
07/08/2022,07:48:21,0.422,1.0,0.372,0.007
07/08/2022,07:49:20,0.427,1.0,0.379,0.007
07/08/2022,07:50:21,0.433,1.0,0.386,0.007
07/08/2022,07:51:30,0.440,1.0,0.395,0.009
07/08/2022,07:52:19,0.446,1.0,0.401,0.006
07/08/2022,07:53:20,0.451,1.0,0.408,0.007
07/08/2022,07:54:21,0.458,1.0,0.416,0.008
07/08/2022,07:55:21,0.464,1.0,0.424,0.008
07/08/2022,07:56:29,0.471,1.0,0.433,0.009
07/08/2022,07:57:21,0.478,1.0,0.439,0.006
07/08/2022,07:58:21,0.482,1.0,0.447,0.008
07/08/2022,07:59:29,0.491,1.0,0.457,0.01
07/08/2022,08:00:20,0.496,1.0,0.464,0.007
07/08/2022,08:01:20,0.502,1.0,0.472,0.008
07/08/2022,08:02:21,0.509,1.0,0.48,0.008
07/08/2022,08:03:21,0.515,1.0,0.489,0.009
07/08/2022,08:04:21,0.522,1.0,0.498,0.009
07/08/2022,08:05:21,0.528,1.0,0.506,0.008
07/08/2022,08:06:20,0.535,1.0,0.515,0.009
07/08/2022,08:07:20,0.541,1.0,0.524,0.009
07/08/2022,08:08:20,0.549,1.0,0.533,0.009
07/08/2022,08:09:21,0.554,1.0,0.543,0.01
07/08/2022,08:10:21,0.562,1.0,0.552,0.009
07/08/2022,08:11:21,0.570,1.0,0.561,0.009
07/08/2022,08:12:20,0.577,1.0,0.571,0.01
07/08/2022,08:13:21,0.585,1.0,0.581,0.01
07/08/2022,08:14:21,0.592,1.0,0.59,0.009
07/08/2022,08:15:21,0.599,1.0,0.6,0.01
07/08/2022,08:16:21,0.606,1.0,0.61,0.01
07/08/2022,08:17:29,0.614,1.0,0.622,0.012
07/08/2022,08:18:20,0.621,1.0,0.631,0.009
07/08/2022,08:19:21,0.628,1.0,0.641,0.01
07/08/2022,08:20:29,0.636,1.0,0.653,0.012
07/08/2022,08:21:22,0.643,1.0,0.663,0.01
07/08/2022,08:22:20,0.650,1.0,0.673,0.01
07/08/2022,08:23:21,0.656,2.0,0.684,0.011
07/08/2022,08:24:21,0.664,2.0,0.695,0.011
07/08/2022,08:25:21,0.673,2.0,0.706,0.011
07/08/2022,08:26:21,0.679,2.0,0.717,0.011
07/08/2022,08:27:21,0.686,2.0,0.729,0.012
07/08/2022,08:28:21,0.694,2.0,0.74,0.011
07/08/2022,08:29:21,0.702,2.0,0.752,0.012
07/08/2022,08:30:21,0.709,2.0,0.764,0.012
07/08/2022,08:31:21,0.717,2.0,0.775,0.011
07/08/2022,08:32:30,0.726,2.0,0.789,0.014
07/08/2022,08:33:21,0.733,2.0,0.8,0.011
07/08/2022,08:34:20,0.741,2.0,0.812,0.012
07/08/2022,08:35:31,0.750,2.0,0.826,0.014
07/08/2022,08:36:21,0.757,2.0,0.837,0.011
07/08/2022,08:37:21,0.765,2.0,0.85,0.013
07/08/2022,08:38:21,0.771,2.0,0.862,0.012
07/08/2022,08:39:21,0.780,2.0,0.875,0.013
07/08/2022,08:40:21,0.788,2.0,0.888,0.013
07/08/2022,08:41:21,0.795,2.0,0.902,0.014
07/08/2022,08:42:20,0.806,2.0,0.915,0.013
07/08/2022,08:43:21,0.813,2.0,0.928,0.013
07/08/2022,08:44:20,0.820,2.0,0.942,0.014
07/08/2022,08:45:21,0.828,2.0,0.956,0.014
07/08/2022,08:46:20,0.836,2.0,0.97,0.014
07/08/2022,08:47:20,0.844,2.0,0.984,0.014
07/08/2022,08:48:21,0.851,2.0,0.998,0.014
07/08/2022,08:49:21,0.859,2.0,1.012,0.014
07/08/2022,08:50:21,0.868,2.0,1.026,0.014
07/08/2022,08:51:21,0.876,2.0,1.041,0.015
07/08/2022,08:52:21,0.885,2.0,1.056,0.015
07/08/2022,08:53:29,0.895,2.0,1.072,0.016
07/08/2022,08:54:21,0.902,2.0,1.086,0.014
07/08/2022,08:55:21,0.910,2.0,1.101,0.015
07/08/2022,08:56:21,0.919,2.0,1.116,0.015
07/08/2022,08:57:21,0.926,2.0,1.131,0.015
07/08/2022,08:58:21,0.934,2.0,1.147,0.016
07/08/2022,08:59:21,0.943,2.0,1.162,0.015
07/08/2022,09:00:20,0.950,2.0,1.178,0.016
07/08/2022,09:01:21,0.959,2.0,1.194,0.016
07/08/2022,09:02:21,0.967,2.0,1.211,0.017
07/08/2022,09:03:29,0.980,2.0,1.228,0.017
07/08/2022,09:04:21,0.985,2.0,1.243,0.015
07/08/2022,09:05:21,0.994,2.0,1.259,0.016
07/08/2022,09:06:21,1.001,2.0,1.276,0.017
07/08/2022,09:07:21,1.012,2.0,1.292,0.016
07/08/2022,09:08:21,1.019,2.0,1.309,0.017
07/08/2022,09:09:21,1.029,2.0,1.326,0.017
07/08/2022,09:10:21,1.039,2.0,1.344,0.018
07/08/2022,09:11:21,1.047,2.0,1.361,0.017
07/08/2022,09:12:29,1.056,2.0,1.382,0.021
07/08/2022,09:13:21,1.065,2.0,1.396,0.014
07/08/2022,09:14:21,1.069,2.0,1.414,0.018
07/08/2022,09:15:21,1.080,2.0,1.432,0.018
07/08/2022,09:16:21,1.089,3.0,1.45,0.018
07/08/2022,09:17:21,1.098,3.0,1.469,0.019
07/08/2022,09:18:21,1.105,3.0,1.487,0.018
07/08/2022,09:19:21,1.115,3.0,1.505,0.018
07/08/2022,09:20:21,1.122,3.0,1.524,0.019
07/08/2022,09:21:21,1.133,3.0,1.542,0.018
07/08/2022,09:22:20,1.142,3.0,1.561,0.019
07/08/2022,09:23:21,1.150,3.0,1.581,0.02
07/08/2022,09:24:30,1.164,3.0,1.603,0.022
07/08/2022,09:25:21,1.175,3.0,1.62,0.017
07/08/2022,09:26:30,1.180,3.0,1.642,0.022
07/08/2022,09:27:21,1.188,3.0,1.659,0.017
07/08/2022,09:28:20,1.197,3.0,1.678,0.019
07/08/2022,09:29:21,1.206,3.0,1.699,0.021
07/08/2022,09:30:21,1.212,3.0,1.719,0.02
07/08/2022,09:31:21,1.217,3.0,1.739,0.02
07/08/2022,09:32:21,1.232,3.0,1.759,0.02
07/08/2022,09:33:21,1.235,3.0,1.78,0.021
07/08/2022,09:34:21,1.247,3.0,1.801,0.021
07/08/2022,09:35:21,1.256,3.0,1.821,0.02
07/08/2022,09:36:21,1.265,3.0,1.842,0.021
07/08/2022,09:37:21,1.273,3.0,1.864,0.022
07/08/2022,09:38:21,1.281,3.0,1.885,0.021
07/08/2022,09:39:21,1.291,3.0,1.906,0.021
07/08/2022,09:40:21,1.300,3.0,1.928,0.022
07/08/2022,09:41:21,1.309,3.0,1.95,0.022
07/08/2022,09:42:21,1.316,3.0,1.972,0.022
07/08/2022,09:43:21,1.326,3.0,1.994,0.022
07/08/2022,09:44:29,1.336,3.0,2.019,0.025
07/08/2022,09:45:21,1.346,3.0,2.039,0.02
07/08/2022,09:46:21,1.352,3.0,2.061,0.022
07/08/2022,09:47:21,1.357,3.0,2.083,0.022
07/08/2022,09:48:21,1.368,3.0,2.107,0.024
07/08/2022,09:49:21,1.374,3.0,2.129,0.022
07/08/2022,09:50:21,1.383,3.0,2.152,0.023
07/08/2022,09:51:21,1.388,3.0,2.175,0.023
07/08/2022,09:52:21,1.396,3.0,2.198,0.023
07/08/2022,09:53:21,1.408,3.0,2.222,0.024
07/08/2022,09:54:21,1.422,3.0,2.245,0.023
07/08/2022,09:55:23,1.434,3.0,2.27,0.025
07/08/2022,09:56:21,1.445,3.0,2.293,0.023
07/08/2022,09:57:22,1.454,3.0,2.318,0.025
07/08/2022,09:58:21,1.462,3.0,2.341,0.023
07/08/2022,09:59:21,1.475,3.0,2.366,0.025
07/08/2022,10:00:29,1.482,3.0,2.394,0.028
07/08/2022,10:01:21,1.491,3.0,2.416,0.022
07/08/2022,10:02:21,1.494,3.0,2.441,0.025
07/08/2022,10:03:21,1.506,3.0,2.465,0.024
07/08/2022,10:04:21,1.516,3.0,2.49,0.025
07/08/2022,10:05:21,1.512,3.0,2.515,0.025
07/08/2022,10:06:21,1.519,3.0,2.541,0.026
07/08/2022,10:07:21,1.528,4.0,2.566,0.025
07/08/2022,10:08:21,1.539,4.0,2.592,0.026
07/08/2022,10:09:21,1.549,4.0,2.617,0.025
07/08/2022,10:10:21,1.556,4.0,2.643,0.026